Overview Statistics Trail Chart Weather Telemetry Raw packets
 

This is the latest recevied weather packets stored in our database for station/object K5MGY. If no packets are shown the sender has not sent any weather packets the latest 10 day(s).

<< 22 23 24 25 26 27 28 >>
Time Temp. Humidity Pressure Rain* Wind** Luminosity Snow
1788457681 30° C 70% 1037.7 hPa 0 mm - 214 W/m² -
1788457377 30.56° C 69% 1037.6 hPa 0 mm - 148 W/m² -
1788457076 30.56° C 68% 1037.9 hPa 0 mm - 244 W/m² -
1788456772 30.56° C 68% 1037.9 hPa 0 mm - 228 W/m² -
1788456468 30° C 68% 1038 hPa 0 mm - 193 W/m² -
1788456162 30.56° C 69% 1037.8 hPa 0 mm - 165 W/m² -
1788455857 30° C 69% 1037.8 hPa 0 mm - 191 W/m² -
1788455553 30° C 70% 1037.9 hPa 0 mm - 157 W/m² -
1788455252 30° C 70% 1037.9 hPa 0 mm - 131 W/m² -
1788454948 30° C 70% 1037.9 hPa 0 mm - 102 W/m² -
1788454645 30° C 70% 1037.8 hPa 0 mm - 130 W/m² -
1788454340 30° C 70% 1038 hPa 0 mm - 107 W/m² -
1788454034 30° C 70% 1038 hPa 0 mm - 94 W/m² -
1788453731 30° C 70% 1037.8 hPa 0 mm - 116 W/m² -
1788453430 30° C 71% 1037.9 hPa 0 mm - 128 W/m² -
1788453127 30° C 71% 1038 hPa 0 mm - 145 W/m² -
1788452823 30° C 71% 1037.9 hPa 0 mm - 147 W/m² -
1788452518 30° C 71% 1038.2 hPa 0 mm - 107 W/m² -
1788452214 30° C 72% 1037.8 hPa 0 mm - 125 W/m² -
1788451909 30° C 71% 1038.2 hPa 0 mm - 136 W/m² -
1788451604 29.44° C 72% 1037.8 hPa 0 mm - 170 W/m² -
1788451299 29.44° C 73% 1038 hPa 0 mm - 183 W/m² -
1788450998 29.44° C 73% 1038 hPa 0 mm - 143 W/m² -
1788450693 29.44° C 73% 1038.2 hPa 0 mm - 132 W/m² -
1788450389 28.89° C 74% 1038 hPa 0 mm - 130 W/m² -

* Rain latest hour (hover to see other rain measurements)
** Current wind speed in m/s (hover to see current wind gust speed)